Flag for Switzerland Weather past 2 weeks in Chur, Graubünden, Switzerland

Now
43 °F

Quite cool.


Feels Like: 36 °F
Forecast: 36 / 56 °F
Wind: 14 mph from Northeast

Location: Chur-Ems

Current Time: Mar 27, 2015 at 9:59:49 AM

Latest Report: Mar 27, 2015 at 9:00 AM


Visibility: N/A

Pressure: 30.06 "Hg

Humidity: 73%

Dew point: 35 °F

Location of ChurLocation

Historic Weather in Chur — Graph

°F

Chur temperature yesterday

Maximum temperature yesterday: 50 °F (at 3:00 PM)
Minimum temperature yesterday: 42 °F (at 8:00 AM)
Average temperature yesterday: 44 °F

Past Weeks' High & Low Weather Summary

 TemperatureHumidityPressure
High65 °F (Mar 18, 2:40 PM)95% (Mar 23, 6:00 AM)30.45 "Hg (Mar 23, 6:00 AM)
Low28 °F (Mar 14, 6:00 AM)26% (Mar 15, 2:00 PM)29.50 "Hg (Mar 25, 1:00 PM)
Average46 °F59%30.06 "Hg
* Reported Mar 12 8:00 AM — Mar 27 8:00 AM, Chur, Weather by CustomWeather, © 2015

Note: Actual official high and low records may vary slightly from our data, if they occured in-between our weather recording intervals... More about our weather records

Advertising

Chur weather history for previous 24 hours

 ConditionsComfort  
Time TempWeatherWind HumidityBarometerVisibility
8:00 AM
Fri, Mar 27
43 °FQuite cool.12 mph75%30.04 "HgN/A
7:00 AMN/AFog.N/AN/AN/A6 mi
6:00 AM43 °FQuite cool.14 mph72%29.99 "HgN/A
5:00 AM43 °FQuite cool.16 mph68%29.97 "HgN/A
3:00 AM41 °FQuite cool.6 mph86%29.96 "HgN/A
2:00 AM41 °FQuite cool.5 mph90%29.96 "HgN/A
12:00 AM42 °FQuite cool.3 mph82%29.93 "HgN/A
11:00 PM
Thu, Mar 26
43 °FQuite cool.3 mph81%29.93 "HgN/A
9:00 PM43 °FQuite cool.5 mph76%29.90 "HgN/A
8:00 PM44 °FQuite cool.10 mph74%29.88 "HgN/A
7:00 PM44 °FFog.14 mph72%29.87 "Hg4 mi
6:00 PM45 °FCool.13 mph71%29.85 "HgN/A
5:00 PM46 °FCool.14 mph68%29.83 "HgN/A
4:00 PM47 °FFog.15 mph68%29.80 "Hg7 mi
3:00 PM50 °FCool.14 mph59%29.78 "HgN/A
2:00 PM50 °FCool.8 mph61%29.78 "HgN/A
1:00 PM49 °FPartly sunny.9 mph64%29.79 "Hg16 mi
12:00 PM47 °FCool.9 mph67%29.82 "HgN/A
11:00 AM45 °FCool.7 mph71%29.84 "HgN/A
10:00 AM44 °FPartly sunny.12 mph75%29.85 "Hg12 mi
9:00 AM42 °FQuite cool.12 mph78%29.85 "HgN/A
Weather by CustomWeather, © 2015

See weather overviewHow to use our weather pages